contact:dominique.lefevre@mio.osupytheas.fr, maurice.libes@osupytheas.fr, didier.mallarino@osupytheas.fr
Project:EMSO http://www.emso-fr.org/EMSO-France
Depth: 2436.0 m
Title:EMSO Ligure Ouest : Data MII capteur MICROCAT
DateTime_Computer,Latitude,Longitude,Temperature,Conductivity,Pressure,DateTime_Instrument
DateTime_Computer,Latitude,Longitude,degC,S m-1,dbar,DateTime_Instrument
2020-05-16T00:01:02Z,42.805,6.029,13.2968,4.59976,2470.124,2020-5-16T02:01:44Z
2020-05-16T00:04:05Z,42.805,6.029,13.2969,4.59975,2470.147,2020-5-16T02:04:47Z
2020-05-16T00:07:08Z,42.805,6.029,13.2971,4.59976,2470.133,2020-5-16T02:07:50Z
2020-05-16T00:10:12Z,42.805,6.029,13.2969,4.59981,2470.11,2020-5-16T02:10:54Z
2020-05-16T00:13:15Z,42.805,6.029,13.2971,4.59979,2470.1,2020-5-16T02:13:57Z
2020-05-16T00:16:18Z,42.805,6.029,13.2973,4.59982,2470.133,2020-5-16T02:17:00Z
2020-05-16T00:19:21Z,42.805,6.029,13.2970,4.59983,2470.087,2020-5-16T02:20:03Z
2020-05-16T00:22:24Z,42.805,6.029,13.2967,4.59977,2470.147,2020-5-16T02:23:06Z
2020-05-16T00:25:28Z,42.805,6.029,13.2971,4.59981,2470.124,2020-5-16T02:26:10Z
2020-05-16T00:28:31Z,42.805,6.029,13.2969,4.59983,2470.11,2020-5-16T02:29:13Z
2020-05-16T00:31:34Z,42.805,6.029,13.2974,4.59978,2470.087,2020-5-16T02:32:16Z
2020-05-16T00:34:37Z,42.805,6.029,13.2971,4.59977,2470.124,2020-5-16T02:35:19Z
2020-05-16T00:37:41Z,42.805,6.029,13.2972,4.59973,2470.087,2020-5-16T02:38:23Z
2020-05-16T00:40:44Z,42.805,6.029,13.2968,4.59980,2470.133,2020-5-16T02:41:26Z
2020-05-16T00:43:47Z,42.805,6.029,13.2972,4.59973,2470.133,2020-5-16T02:44:29Z
2020-05-16T00:46:50Z,42.805,6.029,13.2969,4.59972,2470.133,2020-5-16T02:47:32Z
2020-05-16T00:49:54Z,42.805,6.029,13.2967,4.59975,2470.133,2020-5-16T02:50:36Z
2020-05-16T00:52:57Z,42.805,6.029,13.2969,4.59973,2470.124,2020-5-16T02:53:39Z
2020-05-16T00:56:00Z,42.805,6.029,13.2969,4.59973,2470.171,2020-5-16T02:56:42Z
2020-05-16T00:59:03Z,42.805,6.029,13.2967,4.59981,2470.11,2020-5-16T02:59:45Z
2020-05-16T01:02:07Z,42.805,6.029,13.2968,4.59973,2470.11,2020-5-16T03:02:49Z
2020-05-16T01:05:10Z,42.805,6.029,13.2970,4.59976,2470.147,2020-5-16T03:05:52Z
2020-05-16T01:08:14Z,42.805,6.029,13.2968,4.59975,2470.11,2020-5-16T03:08:56Z
2020-05-16T01:11:17Z,42.805,6.029,13.2970,4.59976,2470.133,2020-5-16T03:11:59Z
2020-05-16T01:14:20Z,42.805,6.029,13.2964,4.59976,2470.133,2020-5-16T03:15:02Z
2020-05-16T01:17:23Z,42.805,6.029,13.2968,4.59973,2470.124,2020-5-16T03:18:05Z
2020-05-16T01:20:27Z,42.805,6.029,13.2969,4.59975,2470.133,2020-5-16T03:21:09Z
2020-05-16T01:23:30Z,42.805,6.029,13.2968,4.59976,2470.11,2020-5-16T03:24:12Z
2020-05-16T01:26:33Z,42.805,6.029,13.2969,4.59975,2470.124,2020-5-16T03:27:15Z
2020-05-16T01:29:36Z,42.805,6.029,13.2971,4.59978,2470.11,2020-5-16T03:30:18Z
2020-05-16T01:32:40Z,42.805,6.029,13.2968,4.59973,2470.156,2020-5-16T03:33:22Z
2020-05-16T01:35:43Z,42.805,6.029,13.2972,4.59971,2470.147,2020-5-16T03:36:25Z
2020-05-16T01:38:46Z,42.805,6.029,13.2974,4.59979,2470.133,2020-5-16T03:39:28Z
2020-05-16T01:41:49Z,42.805,6.029,13.2974,4.59974,2470.133,2020-5-16T03:42:31Z
2020-05-16T01:44:53Z,42.805,6.029,13.2976,4.59976,2470.133,2020-5-16T03:45:35Z
2020-05-16T01:47:56Z,42.805,6.029,13.2974,4.59978,2470.147,2020-5-16T03:48:38Z
2020-05-16T01:50:59Z,42.805,6.029,13.2967,4.59989,2470.133,2020-5-16T03:51:41Z
2020-05-16T01:54:03Z,42.805,6.029,13.2969,4.59987,2470.171,2020-5-16T03:54:45Z
2020-05-16T01:57:06Z,42.805,6.029,13.2970,4.59975,2470.133,2020-5-16T03:57:48Z
2020-05-16T02:00:09Z,42.805,6.029,13.2974,4.59974,2470.133,2020-5-16T04:00:51Z
2020-05-16T02:03:12Z,42.805,6.029,13.2968,4.59975,2470.171,2020-5-16T04:03:54Z
2020-05-16T02:06:16Z,42.805,6.029,13.2968,4.59976,2470.133,2020-5-16T04:06:58Z
2020-05-16T02:09:19Z,42.805,6.029,13.2970,4.59974,2470.156,2020-5-16T04:10:01Z
2020-05-16T02:12:22Z,42.805,6.029,13.2971,4.59976,2470.133,2020-5-16T04:13:04Z
2020-05-16T02:15:26Z,42.805,6.029,13.2971,4.59975,2470.18,2020-5-16T04:16:08Z
2020-05-16T02:18:29Z,42.805,6.029,13.2971,4.59978,2470.133,2020-5-16T04:19:11Z
2020-05-16T02:21:32Z,42.805,6.029,13.2973,4.59976,2470.133,2020-5-16T04:22:14Z
2020-05-16T02:24:35Z,42.805,6.029,13.2971,4.59976,2470.156,2020-5-16T04:25:17Z
2020-05-16T02:27:39Z,42.805,6.029,13.2972,4.59974,2470.147,2020-5-16T04:28:21Z
2020-05-16T02:30:42Z,42.805,6.029,13.2970,4.59972,2470.194,2020-5-16T04:31:24Z
2020-05-16T02:33:45Z,42.805,6.029,13.2974,4.59976,2470.133,2020-5-16T04:34:27Z
2020-05-16T02:36:48Z,42.805,6.029,13.2968,4.59978,2470.147,2020-5-16T04:37:30Z
2020-05-16T02:39:52Z,42.805,6.029,13.2971,4.59973,2470.147,2020-5-16T04:40:34Z
2020-05-16T02:42:55Z,42.805,6.029,13.2973,4.59974,2470.124,2020-5-16T04:43:37Z
2020-05-16T02:45:58Z,42.805,6.029,13.2972,4.59986,2470.156,2020-5-16T04:46:40Z
2020-05-16T02:49:01Z,42.805,6.029,13.2972,4.59976,2470.124,2020-5-16T04:49:43Z
2020-05-16T02:52:04Z,42.805,6.029,13.2969,4.59979,2470.124,2020-5-16T04:52:46Z
2020-05-16T02:55:08Z,42.805,6.029,13.2968,4.59986,2470.133,2020-5-16T04:55:50Z
2020-05-16T02:58:11Z,42.805,6.029,13.2969,4.59978,2470.171,2020-5-16T04:58:53Z
2020-05-16T03:01:14Z,42.805,6.029,13.2973,4.59985,2470.133,2020-5-16T05:01:56Z
2020-05-16T03:04:18Z,42.805,6.029,13.2970,4.59997,2470.156,2020-5-16T05:05:00Z
2020-05-16T03:07:21Z,42.805,6.029,13.2968,4.59982,2470.133,2020-5-16T05:08:03Z
2020-05-16T03:10:24Z,42.805,6.029,13.2971,4.59976,2470.171,2020-5-16T05:11:06Z
2020-05-16T03:13:27Z,42.805,6.029,13.2968,4.59981,2470.11,2020-5-16T05:14:09Z
2020-05-16T03:16:30Z,42.805,6.029,13.2970,4.59978,2470.1,2020-5-16T05:17:12Z
2020-05-16T03:19:34Z,42.805,6.029,13.2968,4.59990,2470.147,2020-5-16T05:20:16Z
2020-05-16T03:22:37Z,42.805,6.029,13.2970,4.59982,2470.133,2020-5-16T05:23:19Z
2020-05-16T03:25:40Z,42.805,6.029,13.2970,4.59982,2470.133,2020-5-16T05:26:22Z
2020-05-16T03:28:44Z,42.805,6.029,13.2971,4.59976,2470.133,2020-5-16T05:29:26Z
2020-05-16T03:31:47Z,42.805,6.029,13.2971,4.59978,2470.133,2020-5-16T05:32:29Z
2020-05-16T03:34:50Z,42.805,6.029,13.2967,4.59986,2470.147,2020-5-16T05:35:32Z
2020-05-16T03:37:53Z,42.805,6.029,13.2969,4.59981,2470.124,2020-5-16T05:38:35Z
2020-05-16T03:40:57Z,42.805,6.029,13.2973,4.59993,2470.147,2020-5-16T05:41:39Z
2020-05-16T03:44:00Z,42.805,6.029,13.2967,4.59990,2470.124,2020-5-16T05:44:42Z
2020-05-16T03:47:03Z,42.805,6.029,13.2973,4.59986,2470.156,2020-5-16T05:47:45Z
2020-05-16T03:50:06Z,42.805,6.029,13.2971,4.59991,2470.18,2020-5-16T05:50:48Z
2020-05-16T03:53:10Z,42.805,6.029,13.2974,4.59991,2470.124,2020-5-16T05:53:52Z
2020-05-16T03:56:13Z,42.805,6.029,13.2975,4.59986,2470.133,2020-5-16T05:56:55Z
2020-05-16T03:59:16Z,42.805,6.029,13.3060,4.60007,2470.156,2020-5-16T05:59:58Z
2020-05-16T04:02:19Z,42.805,6.029,13.3089,4.60025,2470.147,2020-5-16T06:03:01Z
2020-05-16T04:05:23Z,42.805,6.029,13.2971,4.60013,2470.156,2020-5-16T06:06:05Z
2020-05-16T04:08:26Z,42.805,6.029,13.2974,4.60021,2470.147,2020-5-16T06:09:08Z
2020-05-16T04:11:29Z,42.805,6.029,13.2998,4.60004,2470.147,2020-5-16T06:12:11Z
2020-05-16T04:14:33Z,42.805,6.029,13.2974,4.60013,2470.133,2020-5-16T06:15:15Z
2020-05-16T04:17:36Z,42.805,6.029,13.2987,4.60044,2470.133,2020-5-16T06:18:18Z
2020-05-16T04:20:39Z,42.805,6.029,13.2976,4.60013,2470.156,2020-5-16T06:21:21Z
2020-05-16T04:23:42Z,42.805,6.029,13.2971,4.59995,2470.147,2020-5-16T06:24:24Z
2020-05-16T04:26:45Z,42.805,6.029,13.2971,4.60006,2470.133,2020-5-16T06:27:27Z
2020-05-16T04:29:49Z,42.805,6.029,13.2969,4.60005,2470.147,2020-5-16T06:30:31Z
2020-05-16T04:32:52Z,42.805,6.029,13.2974,4.60008,2470.124,2020-5-16T06:33:34Z
2020-05-16T04:35:55Z,42.805,6.029,13.2979,4.59989,2470.124,2020-5-16T06:36:37Z
2020-05-16T04:38:58Z,42.805,6.029,13.2983,4.60009,2470.156,2020-5-16T06:39:40Z
2020-05-16T04:42:02Z,42.805,6.029,13.2975,4.60049,2470.156,2020-5-16T06:42:44Z
2020-05-16T04:45:05Z,42.805,6.029,13.2975,4.59999,2470.124,2020-5-16T06:45:47Z
2020-05-16T04:48:08Z,42.805,6.029,13.2976,4.60001,2470.11,2020-5-16T06:48:50Z
2020-05-16T04:51:11Z,42.805,6.029,13.3021,4.60000,2470.133,2020-5-16T06:51:53Z
2020-05-16T04:54:14Z,42.805,6.029,13.3034,4.59986,2470.133,2020-5-16T06:54:56Z
2020-05-16T04:57:18Z,42.805,6.029,13.3010,4.59983,2470.124,2020-5-16T06:58:00Z
2020-05-16T05:00:21Z,42.805,6.029,13.3014,4.60001,2470.143,2020-5-16T07:01:03Z
2020-05-16T05:03:24Z,42.805,6.029,13.2981,4.60010,2470.124,2020-5-16T07:04:06Z
2020-05-16T05:06:27Z,42.805,6.029,13.2981,4.60015,2470.133,2020-5-16T07:07:09Z
2020-05-16T05:09:31Z,42.805,6.029,13.2971,4.60026,2470.124,2020-5-16T07:10:13Z
2020-05-16T05:12:34Z,42.805,6.029,13.2993,4.59996,2470.11,2020-5-16T07:13:16Z
2020-05-16T05:15:37Z,42.805,6.029,13.2974,4.59983,2470.087,2020-5-16T07:16:19Z
2020-05-16T05:18:40Z,42.805,6.029,13.2983,4.59987,2470.11,2020-5-16T07:19:22Z
2020-05-16T05:21:44Z,42.805,6.029,13.3007,4.59993,2470.156,2020-5-16T07:22:26Z
2020-05-16T05:24:47Z,42.805,6.029,13.2991,4.60031,2470.11,2020-5-16T07:25:29Z
2020-05-16T05:27:50Z,42.805,6.029,13.2997,4.60012,2470.133,2020-5-16T07:28:32Z
2020-05-16T05:30:53Z,42.805,6.029,13.2978,4.59994,2470.11,2020-5-16T07:31:35Z
2020-05-16T05:33:57Z,42.805,6.029,13.2983,4.59994,2470.147,2020-5-16T07:34:39Z
2020-05-16T05:37:00Z,42.805,6.029,13.2982,4.59983,2470.11,2020-5-16T07:37:42Z
2020-05-16T05:40:03Z,42.805,6.029,13.3011,4.59986,2470.11,2020-5-16T07:40:45Z
2020-05-16T05:43:06Z,42.805,6.029,13.3024,4.59991,2470.11,2020-5-16T07:43:48Z
2020-05-16T05:46:10Z,42.805,6.029,13.3020,4.59991,2470.124,2020-5-16T07:46:52Z
2020-05-16T05:49:13Z,42.805,6.029,13.3011,4.59999,2470.11,2020-5-16T07:49:55Z
2020-05-16T05:52:16Z,42.805,6.029,13.3014,4.60026,2470.1,2020-5-16T07:52:58Z
2020-05-16T05:55:20Z,42.805,6.029,13.2978,4.60040,2470.087,2020-5-16T07:56:02Z
2020-05-16T05:58:23Z,42.805,6.029,13.2988,4.60033,2470.133,2020-5-16T07:59:05Z
2020-05-16T06:01:26Z,42.805,6.029,13.3009,4.60037,2470.114,2020-5-16T08:02:08Z
2020-05-16T06:04:29Z,42.805,6.029,13.3015,4.60019,2470.147,2020-5-16T08:05:11Z
2020-05-16T06:07:33Z,42.805,6.029,13.3015,4.60014,2470.124,2020-5-16T08:08:15Z
2020-05-16T06:10:36Z,42.805,6.029,13.3039,4.60023,2470.124,2020-5-16T08:11:18Z
2020-05-16T06:13:39Z,42.805,6.029,13.3029,4.60021,2470.1,2020-5-16T08:14:21Z
2020-05-16T06:16:42Z,42.805,6.029,13.3023,4.60006,2470.1,2020-5-16T08:17:24Z
2020-05-16T06:19:46Z,42.805,6.029,13.3041,4.60010,2470.087,2020-5-16T08:20:28Z
2020-05-16T06:22:49Z,42.805,6.029,13.3033,4.60007,2470.063,2020-5-16T08:23:31Z
2020-05-16T06:25:52Z,42.805,6.029,13.3047,4.60034,2470.1,2020-5-16T08:26:34Z
2020-05-16T06:28:55Z,42.805,6.029,13.3048,4.60008,2470.1,2020-5-16T08:29:37Z
2020-05-16T06:31:58Z,42.805,6.029,13.3050,4.59999,2470.087,2020-5-16T08:32:40Z
2020-05-16T06:35:02Z,42.805,6.029,13.3053,4.60031,2470.077,2020-5-16T08:35:44Z
2020-05-16T06:38:05Z,42.805,6.029,13.3047,4.60014,2470.1,2020-5-16T08:38:47Z
2020-05-16T06:41:08Z,42.805,6.029,13.3041,4.60003,2470.11,2020-5-16T08:41:50Z
2020-05-16T06:44:12Z,42.805,6.029,13.3048,4.60009,2470.1,2020-5-16T08:44:54Z
2020-05-16T06:47:15Z,42.805,6.029,13.3047,4.60008,2470.063,2020-5-16T08:47:57Z
2020-05-16T06:50:18Z,42.805,6.029,13.3053,4.60018,2470.1,2020-5-16T08:51:00Z
2020-05-16T06:53:21Z,42.805,6.029,13.3040,4.60031,2470.077,2020-5-16T08:54:03Z
2020-05-16T06:56:25Z,42.805,6.029,13.3049,4.60038,2470.124,2020-5-16T08:57:07Z
2020-05-16T06:59:28Z,42.805,6.029,13.3053,4.60039,2470.1,2020-5-16T09:00:10Z
2020-05-16T07:02:31Z,42.805,6.029,13.3048,4.60026,2470.077,2020-5-16T09:03:13Z
2020-05-16T07:05:34Z,42.805,6.029,13.3044,4.60041,2470.087,2020-5-16T09:06:16Z
2020-05-16T07:08:38Z,42.805,6.029,13.3045,4.60041,2470.077,2020-5-16T09:09:20Z
2020-05-16T07:11:41Z,42.805,6.029,13.3043,4.60044,2470.077,2020-5-16T09:12:23Z
2020-05-16T07:14:44Z,42.805,6.029,13.3048,4.60044,2470.087,2020-5-16T09:15:26Z
2020-05-16T07:17:47Z,42.805,6.029,13.3052,4.60015,2470.077,2020-5-16T09:18:29Z
2020-05-16T07:20:50Z,42.805,6.029,13.3055,4.60032,2470.1,2020-5-16T09:21:32Z
2020-05-16T07:23:54Z,42.805,6.029,13.3044,4.60012,2470.077,2020-5-16T09:24:36Z
2020-05-16T07:26:57Z,42.805,6.029,13.3051,4.60015,2470.077,2020-5-16T09:27:39Z
2020-05-16T07:30:00Z,42.805,6.029,13.3038,4.60031,2470.053,2020-5-16T09:30:42Z
2020-05-16T07:33:03Z,42.805,6.029,13.3031,4.60034,2470.091,2020-5-16T09:33:45Z
2020-05-16T07:36:07Z,42.805,6.029,13.3041,4.60014,2470.053,2020-5-16T09:36:49Z
2020-05-16T07:39:10Z,42.805,6.029,13.3036,4.60024,2470.04,2020-5-16T09:39:52Z
2020-05-16T07:42:14Z,42.805,6.029,13.3041,4.60021,2470.04,2020-5-16T09:42:56Z
2020-05-16T07:45:17Z,42.805,6.029,13.3059,4.60021,2470.077,2020-5-16T09:45:59Z
2020-05-16T07:48:20Z,42.805,6.029,13.3051,4.60036,2470.1,2020-5-16T09:49:02Z
2020-05-16T07:51:24Z,42.805,6.029,13.3052,4.60021,2470.063,2020-5-16T09:52:06Z
2020-05-16T07:54:27Z,42.805,6.029,13.3053,4.60029,2470.03,2020-5-16T09:55:09Z
2020-05-16T07:57:30Z,42.805,6.029,13.3054,4.60027,2470.077,2020-5-16T09:58:12Z
2020-05-16T08:00:34Z,42.805,6.029,13.3054,4.60045,2470.03,2020-5-16T10:01:16Z
2020-05-16T08:03:37Z,42.805,6.029,13.3058,4.60045,2470.04,2020-5-16T10:04:19Z
2020-05-16T08:06:40Z,42.805,6.029,13.3046,4.60064,2470.053,2020-5-16T10:07:22Z
2020-05-16T08:09:43Z,42.805,6.029,13.3058,4.60064,2470.077,2020-5-16T10:10:25Z
2020-05-16T08:12:46Z,42.805,6.029,13.3062,4.60039,2470.053,2020-5-16T10:13:28Z
2020-05-16T08:15:50Z,42.805,6.029,13.3070,4.60052,2470.053,2020-5-16T10:16:32Z
2020-05-16T08:18:53Z,42.805,6.029,13.3067,4.60067,2470.04,2020-5-16T10:19:35Z
2020-05-16T08:21:56Z,42.805,6.029,13.3058,4.60032,2470.077,2020-5-16T10:22:38Z
2020-05-16T08:24:59Z,42.805,6.029,13.3058,4.60038,2470.03,2020-5-16T10:25:41Z
2020-05-16T08:28:03Z,42.805,6.029,13.3051,4.60061,2470.053,2020-5-16T10:28:45Z
2020-05-16T08:31:06Z,42.805,6.029,13.3038,4.60067,2469.993,2020-5-16T10:31:48Z
2020-05-16T08:34:09Z,42.805,6.029,13.3046,4.60070,2470.03,2020-5-16T10:34:51Z
2020-05-16T08:37:12Z,42.805,6.029,13.3032,4.60056,2470.03,2020-5-16T10:37:54Z
2020-05-16T08:40:16Z,42.805,6.029,13.3056,4.60047,2470.04,2020-5-16T10:40:58Z
2020-05-16T08:43:19Z,42.805,6.029,13.3006,4.60031,2470.053,2020-5-16T10:44:01Z
2020-05-16T08:46:22Z,42.805,6.029,13.3039,4.60044,2470.017,2020-5-16T10:47:04Z
2020-05-16T08:49:25Z,42.805,6.029,13.3036,4.60052,2470.017,2020-5-16T10:50:07Z
2020-05-16T08:52:29Z,42.805,6.029,13.3024,4.60047,2470.03,2020-5-16T10:53:11Z
2020-05-16T08:55:32Z,42.805,6.029,13.3011,4.60039,2470.063,2020-5-16T10:56:14Z
2020-05-16T08:58:35Z,42.805,6.029,13.3012,4.60030,2470.03,2020-5-16T10:59:17Z
2020-05-16T09:01:38Z,42.805,6.029,13.2975,4.60095,2470.017,2020-5-16T11:02:20Z
2020-05-16T09:04:41Z,42.805,6.029,13.2970,4.60100,2470.007,2020-5-16T11:05:23Z
2020-05-16T09:07:45Z,42.805,6.029,13.2980,4.60064,2469.993,2020-5-16T11:08:27Z
2020-05-16T09:10:48Z,42.805,6.029,13.2984,4.60038,2470.017,2020-5-16T11:11:30Z
2020-05-16T09:13:51Z,42.805,6.029,13.3004,4.60051,2470.03,2020-5-16T11:14:33Z
2020-05-16T09:16:55Z,42.805,6.029,13.2986,4.60033,2469.993,2020-5-16T11:17:37Z
2020-05-16T09:19:58Z,42.805,6.029,13.2974,4.60073,2470.007,2020-5-16T11:20:40Z
2020-05-16T09:23:01Z,42.805,6.029,13.2970,4.60073,2470.053,2020-5-16T11:23:43Z
2020-05-16T09:26:04Z,42.805,6.029,13.2974,4.60110,2470.017,2020-5-16T11:26:46Z
2020-05-16T09:29:08Z,42.805,6.029,13.2974,4.60112,2470.04,2020-5-16T11:29:50Z
2020-05-16T09:32:11Z,42.805,6.029,13.2971,4.60083,2470.017,2020-5-16T11:32:53Z
2020-05-16T09:35:14Z,42.805,6.029,13.2970,4.60049,2470.017,2020-5-16T11:35:56Z
2020-05-16T09:38:18Z,42.805,6.029,13.2966,4.60049,2470.03,2020-5-16T11:39:00Z
2020-05-16T09:41:21Z,42.805,6.029,13.2968,4.60064,2470.03,2020-5-16T11:42:03Z
2020-05-16T09:44:24Z,42.805,6.029,13.2970,4.60089,2470.007,2020-5-16T11:45:06Z
2020-05-16T09:47:27Z,42.805,6.029,13.2971,4.60044,2469.993,2020-5-16T11:48:09Z
2020-05-16T09:50:31Z,42.805,6.029,13.2975,4.60044,2470.017,2020-5-16T11:51:13Z
2020-05-16T09:53:34Z,42.805,6.029,13.2970,4.60028,2470.007,2020-5-16T11:54:16Z
2020-05-16T09:56:37Z,42.805,6.029,13.2969,4.60035,2470.017,2020-5-16T11:57:19Z
2020-05-16T09:59:40Z,42.805,6.029,13.2969,4.60023,2470.017,2020-5-16T12:00:22Z
2020-05-16T10:02:43Z,42.805,6.029,13.2971,4.60026,2470.017,2020-5-16T12:03:25Z
2020-05-16T10:05:47Z,42.805,6.029,13.2974,4.60019,2470.03,2020-5-16T12:06:29Z
2020-05-16T10:08:50Z,42.805,6.029,13.2970,4.60003,2470.03,2020-5-16T12:09:32Z
2020-05-16T10:11:53Z,42.805,6.029,13.2971,4.60009,2470.053,2020-5-16T12:12:35Z
2020-05-16T10:14:57Z,42.805,6.029,13.2973,4.60016,2469.993,2020-5-16T12:15:39Z
2020-05-16T10:18:00Z,42.805,6.029,13.2971,4.60016,2469.993,2020-5-16T12:18:42Z
2020-05-16T10:21:03Z,42.805,6.029,13.2971,4.60037,2470.017,2020-5-16T12:21:45Z
2020-05-16T10:24:06Z,42.805,6.029,13.2970,4.60019,2469.993,2020-5-16T12:24:48Z
2020-05-16T10:27:10Z,42.805,6.029,13.2968,4.60013,2470.017,2020-5-16T12:27:52Z
2020-05-16T10:30:13Z,42.805,6.029,13.2972,4.60003,2470.053,2020-5-16T12:30:55Z
2020-05-16T10:33:16Z,42.805,6.029,13.2972,4.59998,2470.04,2020-5-16T12:33:58Z
2020-05-16T10:36:19Z,42.805,6.029,13.2968,4.60002,2470.03,2020-5-16T12:37:01Z
2020-05-16T10:39:23Z,42.805,6.029,13.2971,4.60014,2470.03,2020-5-16T12:40:05Z
2020-05-16T10:42:26Z,42.805,6.029,13.2967,4.60024,2470.007,2020-5-16T12:43:08Z
2020-05-16T10:45:29Z,42.805,6.029,13.2968,4.60009,2470.03,2020-5-16T12:46:11Z
2020-05-16T10:48:32Z,42.805,6.029,13.2976,4.60001,2470.007,2020-5-16T12:49:14Z
2020-05-16T10:51:36Z,42.805,6.029,13.2969,4.59999,2470.03,2020-5-16T12:52:18Z
2020-05-16T10:54:39Z,42.805,6.029,13.2966,4.60005,2470.04,2020-5-16T12:55:21Z
2020-05-16T10:57:42Z,42.805,6.029,13.2969,4.59991,2470.04,2020-5-16T12:58:24Z
2020-05-16T11:00:45Z,42.805,6.029,13.2971,4.59994,2470.03,2020-5-16T13:01:27Z
2020-05-16T11:03:48Z,42.805,6.029,13.2968,4.59996,2470.03,2020-5-16T13:04:30Z
2020-05-16T11:06:52Z,42.805,6.029,13.2974,4.59996,2470.053,2020-5-16T13:07:34Z
2020-05-16T11:09:55Z,42.805,6.029,13.2969,4.60000,2470.063,2020-5-16T13:10:37Z
2020-05-16T11:12:58Z,42.805,6.029,13.2969,4.60000,2469.993,2020-5-16T13:13:40Z
2020-05-16T11:16:02Z,42.805,6.029,13.2968,4.60002,2470.04,2020-5-16T13:16:44Z
2020-05-16T11:19:05Z,42.805,6.029,13.2974,4.59999,2470.063,2020-5-16T13:19:47Z
2020-05-16T11:22:08Z,42.805,6.029,13.2971,4.59996,2470.017,2020-5-16T13:22:50Z
2020-05-16T11:25:11Z,42.805,6.029,13.2972,4.60002,2470.063,2020-5-16T13:25:53Z
2020-05-16T11:28:15Z,42.805,6.029,13.2971,4.59998,2470.017,2020-5-16T13:28:57Z
2020-05-16T11:31:18Z,42.805,6.029,13.2974,4.59994,2470.017,2020-5-16T13:32:00Z
2020-05-16T11:34:21Z,42.805,6.029,13.2972,4.60001,2470.063,2020-5-16T13:35:03Z
2020-05-16T11:37:24Z,42.805,6.029,13.2970,4.59991,2470.03,2020-5-16T13:38:07Z
2020-05-16T11:40:28Z,42.805,6.029,13.2971,4.59992,2470.063,2020-5-16T13:41:10Z
2020-05-16T11:43:31Z,42.805,6.029,13.2973,4.59981,2470.03,2020-5-16T13:44:13Z
2020-05-16T11:46:34Z,42.805,6.029,13.2977,4.60013,2470.077,2020-5-16T13:47:16Z
2020-05-16T11:49:37Z,42.805,6.029,13.2975,4.60010,2470.053,2020-5-16T13:50:19Z
2020-05-16T11:52:41Z,42.805,6.029,13.2978,4.59984,2470.007,2020-5-16T13:53:23Z
2020-05-16T11:55:44Z,42.805,6.029,13.2976,4.59999,2470.017,2020-5-16T13:56:26Z
2020-05-16T11:58:47Z,42.805,6.029,13.2971,4.59980,2470.053,2020-5-16T13:59:29Z
2020-05-16T12:01:50Z,42.805,6.029,13.2968,4.59982,2470.04,2020-5-16T14:02:32Z
2020-05-16T12:04:54Z,42.805,6.029,13.2971,4.59978,2470.04,2020-5-16T14:05:36Z
2020-05-16T12:07:57Z,42.805,6.029,13.2970,4.59981,2470.03,2020-5-16T14:08:39Z
2020-05-16T12:11:00Z,42.805,6.029,13.2967,4.59981,2470.04,2020-5-16T14:11:42Z
2020-05-16T12:14:03Z,42.805,6.029,13.2966,4.59980,2470.017,2020-5-16T14:14:45Z
2020-05-16T12:17:07Z,42.805,6.029,13.2969,4.59981,2470.017,2020-5-16T14:17:49Z
2020-05-16T12:20:10Z,42.805,6.029,13.2970,4.59978,2470.04,2020-5-16T14:20:52Z
2020-05-16T12:23:13Z,42.805,6.029,13.2973,4.59998,2470.04,2020-5-16T14:23:55Z
2020-05-16T12:26:16Z,42.805,6.029,13.2968,4.60006,2470.077,2020-5-16T14:26:58Z
2020-05-16T12:29:20Z,42.805,6.029,13.2971,4.60009,2470.03,2020-5-16T14:30:02Z
2020-05-16T12:32:23Z,42.805,6.029,13.2972,4.60009,2470.04,2020-5-16T14:33:05Z
2020-05-16T12:36:28Z,42.805,6.029,13.2969,4.60007,2470.017,2020-5-16T14:36:08Z
2020-05-16T12:38:31Z,42.805,6.029,13.2970,4.59991,2470.04,2020-5-16T14:39:13Z
2020-05-16T12:41:34Z,42.805,6.029,13.2970,4.59980,2470.04,2020-5-16T14:42:16Z
2020-05-16T12:44:38Z,42.805,6.029,13.2974,4.60001,2470.053,2020-5-16T14:45:20Z
2020-05-16T12:47:41Z,42.805,6.029,13.2971,4.59984,2470.077,2020-5-16T14:48:23Z
2020-05-16T12:50:44Z,42.805,6.029,13.2976,4.59984,2470.017,2020-5-16T14:51:26Z
2020-05-16T12:53:47Z,42.805,6.029,13.2975,4.59986,2470.053,2020-5-16T14:54:29Z
2020-05-16T12:56:51Z,42.805,6.029,13.2982,4.59984,2470.04,2020-5-16T14:57:33Z
2020-05-16T12:59:54Z,42.805,6.029,13.2983,4.59986,2470.053,2020-5-16T15:00:36Z
2020-05-16T13:02:57Z,42.805,6.029,13.2986,4.59994,2470.053,2020-5-16T15:03:39Z
2020-05-16T13:06:00Z,42.805,6.029,13.2971,4.59990,2470.04,2020-5-16T15:06:42Z
2020-05-16T13:09:04Z,42.805,6.029,13.2979,4.59981,2470.04,2020-5-16T15:09:46Z
2020-05-16T13:12:07Z,42.805,6.029,13.2968,4.59984,2470.007,2020-5-16T15:12:49Z
2020-05-16T13:15:10Z,42.805,6.029,13.2972,4.59994,2469.993,2020-5-16T15:15:52Z
2020-05-16T13:18:14Z,42.805,6.029,13.2970,4.59982,2470.053,2020-5-16T15:18:56Z
2020-05-16T13:21:17Z,42.805,6.029,13.2972,4.59981,2470.017,2020-5-16T15:21:59Z
2020-05-16T13:24:20Z,42.805,6.029,13.2968,4.59980,2470.053,2020-5-16T15:25:02Z
2020-05-16T13:27:23Z,42.805,6.029,13.2969,4.59983,2470.04,2020-5-16T15:28:05Z
2020-05-16T13:30:26Z,42.805,6.029,13.2974,4.59983,2470.063,2020-5-16T15:31:09Z
2020-05-16T13:33:30Z,42.805,6.029,13.2971,4.59978,2470.053,2020-5-16T15:34:12Z
2020-05-16T13:36:33Z,42.805,6.029,13.2972,4.59979,2470.077,2020-5-16T15:37:15Z
2020-05-16T13:39:37Z,42.805,6.029,13.2969,4.59978,2470.053,2020-5-16T15:40:19Z
2020-05-16T13:42:40Z,42.805,6.029,13.2970,4.59986,2470.077,2020-5-16T15:43:22Z
2020-05-16T13:45:43Z,42.805,6.029,13.2970,4.59984,2470.053,2020-5-16T15:46:25Z
2020-05-16T13:48:46Z,42.805,6.029,13.2972,4.59985,2470.04,2020-5-16T15:49:28Z
2020-05-16T13:51:49Z,42.805,6.029,13.2970,4.59981,2470.087,2020-5-16T15:52:31Z
2020-05-16T13:54:53Z,42.805,6.029,13.2971,4.59994,2470.04,2020-5-16T15:55:35Z
2020-05-16T13:57:56Z,42.805,6.029,13.2971,4.59983,2470.063,2020-5-16T15:58:38Z
2020-05-16T14:00:59Z,42.805,6.029,13.2972,4.59991,2470.077,2020-5-16T16:01:41Z
2020-05-16T14:04:03Z,42.805,6.029,13.2972,4.60007,2470.053,2020-5-16T16:04:45Z
2020-05-16T14:07:06Z,42.805,6.029,13.2968,4.60021,2470.04,2020-5-16T16:07:48Z
2020-05-16T14:10:09Z,42.805,6.029,13.2964,4.59989,2470.04,2020-5-16T16:10:51Z
2020-05-16T14:13:12Z,42.805,6.029,13.2968,4.60008,2470.077,2020-5-16T16:13:54Z
2020-05-16T14:16:16Z,42.805,6.029,13.2967,4.60005,2470.077,2020-5-16T16:16:58Z
2020-05-16T14:19:19Z,42.805,6.029,13.2969,4.59998,2470.04,2020-5-16T16:20:01Z
2020-05-16T14:22:22Z,42.805,6.029,13.2973,4.59999,2470.063,2020-5-16T16:23:04Z
2020-05-16T14:25:26Z,42.805,6.029,13.2967,4.59978,2470.087,2020-5-16T16:26:08Z
2020-05-16T14:28:29Z,42.805,6.029,13.2967,4.60001,2470.063,2020-5-16T16:29:11Z
2020-05-16T14:31:32Z,42.805,6.029,13.2971,4.59992,2470.063,2020-5-16T16:32:14Z
2020-05-16T14:34:35Z,42.805,6.029,13.2972,4.59986,2470.063,2020-5-16T16:35:18Z
2020-05-16T14:37:39Z,42.805,6.029,13.2967,4.59997,2470.1,2020-5-16T16:38:21Z
2020-05-16T14:40:42Z,42.805,6.029,13.2968,4.59978,2470.04,2020-5-16T16:41:24Z
2020-05-16T14:43:45Z,42.805,6.029,13.2968,4.59983,2470.124,2020-5-16T16:44:27Z
2020-05-16T14:46:49Z,42.805,6.029,13.2973,4.59983,2470.087,2020-5-16T16:47:31Z
2020-05-16T14:49:52Z,42.805,6.029,13.2970,4.59991,2470.063,2020-5-16T16:50:34Z
2020-05-16T14:52:55Z,42.805,6.029,13.2973,4.59979,2470.063,2020-5-16T16:53:37Z
2020-05-16T14:55:58Z,42.805,6.029,13.2969,4.59975,2470.087,2020-5-16T16:56:40Z
2020-05-16T14:59:01Z,42.805,6.029,13.2967,4.59994,2470.1,2020-5-16T16:59:43Z
2020-05-16T15:02:05Z,42.805,6.029,13.2971,4.59983,2470.087,2020-5-16T17:02:47Z
2020-05-16T15:05:08Z,42.805,6.029,13.2972,4.59983,2470.087,2020-5-16T17:05:50Z
2020-05-16T15:08:11Z,42.805,6.029,13.2971,4.59982,2470.1,2020-5-16T17:08:53Z
2020-05-16T15:11:14Z,42.805,6.029,13.2968,4.59978,2470.11,2020-5-16T17:11:56Z
2020-05-16T15:14:18Z,42.805,6.029,13.2974,4.59976,2470.1,2020-5-16T17:15:00Z